| time (UTC) | temp F | wind direction | speed MPH | gust MPH | rain 1hr in | rain 24hr in | rain mn in | humidity % | barometer mb |
| 20260507221102 | 62 | 318 | 10.0 | 17.0 | 0.00 | 0.53 | 0.44 | 37 | 1005.0 |
| 20260507215103 | 63 | 312 | 8.0 | 18.0 | 0.00 | 0.53 | 0.44 | 38 | 1004.8 |
| 20260507214144 | 63 | 343 | 13.0 | 20.0 | 0.00 | 0.53 | 0.44 | 38 | 1004.7 |
| 20260507213103 | 63 | 319 | 9.0 | 18.0 | 0.00 | 0.53 | 0.44 | 39 | 1004.6 |
| 20260507212102 | 64 | 322 | 10.0 | 18.0 | 0.00 | 0.54 | 0.44 | 37 | 1004.5 |
| 20260507211103 | 64 | 332 | 10.0 | 17.0 | 0.00 | 0.54 | 0.44 | 39 | 1004.5 |
| 20260507205103 | 64 | 345 | 14.0 | 22.0 | 0.00 | 0.55 | 0.44 | 35 | 1004.4 |
| 20260507204124 | 64 | 307 | 9.0 | 25.0 | 0.00 | 0.55 | 0.44 | 38 | 1004.3 |
| 20260507203103 | 65 | 338 | 14.0 | 21.0 | 0.00 | 0.55 | 0.44 | 37 | 1004.3 |
| 20260507202102 | 65 | 338 | 8.0 | 16.0 | 0.00 | 0.55 | 0.44 | 36 | 1004.2 |
| 20260507201103 | 65 | 339 | 9.0 | 15.0 | 0.00 | 0.55 | 0.44 | 38 | 1004.2 |
| 20260507200125 | 64 | 325 | 7.0 | 14.0 | 0.00 | 0.55 | 0.44 | 38 | 1004.2 |
| 20260507195102 | 64 | 311 | 11.0 | 18.0 | 0.00 | 0.55 | 0.44 | 38 | 1004.3 |
| 20260507194103 | 64 | 5 | 9.0 | 17.0 | 0.00 | 0.57 | 0.44 | 40 | 1004.4 |
| 20260507193123 | 64 | 330 | 14.0 | 19.0 | 0.00 | 0.57 | 0.44 | 41 | 1004.5 |
| 20260507192103 | 64 | 325 | 9.0 | 17.0 | 0.00 | 0.57 | 0.44 | 42 | 1004.7 |
| 20260507191124 | 64 | 257 | 5.0 | 12.0 | 0.00 | 0.57 | 0.44 | 38 | 1004.8 |
| 20260507185102 | 64 | 325 | 12.0 | 18.0 | 0.00 | 0.57 | 0.44 | 40 | 1005.0 |
| 20260507184103 | 64 | 293 | 3.0 | 13.0 | 0.00 | 0.57 | 0.44 | 40 | 1005.1 |
| 20260507183102 | 64 | 317 | 3.0 | 10.0 | 0.00 | 0.57 | 0.44 | 44 | 1005.2 |
| 20260507182103 | 63 | 258 | 6.0 | 16.0 | 0.00 | 0.57 | 0.44 | 37 | 1005.5 |
| 20260507181124 | 63 | 324 | 11.0 | 14.0 | 0.00 | 0.57 | 0.44 | 43 | 1005.6 |
| 20260507175103 | 63 | 332 | 8.0 | 17.0 | 0.00 | 0.57 | 0.44 | 40 | 1005.7 |
| 20260507174124 | 62 | 301 | 8.0 | 16.0 | 0.00 | 0.57 | 0.44 | 42 | 1005.8 |
| 20260507173102 | 63 | 302 | 5.0 | 17.0 | 0.00 | 0.57 | 0.44 | 45 | 1005.9 |
| 20260507172103 | 62 | 341 | 9.0 | 17.0 | 0.00 | 0.57 | 0.44 | 49 | 1005.8 |
| 20260507171103 | 62 | 333 | 14.0 | 23.0 | 0.00 | 0.57 | 0.44 | 49 | 1006.0 |
| 20260507165103 | 62 | 307 | 10.0 | 16.0 | 0.00 | 0.57 | 0.44 | 52 | 1006.2 |
| 20260507164102 | 62 | 295 | 5.0 | 11.0 | 0.00 | 0.57 | 0.44 | 61 | 1006.2 |
| 20260507163103 | 61 | 302 | 5.0 | 17.0 | 0.00 | 0.57 | 0.44 | 60 | 1006.3 |
| 20260507162102 | 61 | 287 | 5.0 | 14.0 | 0.00 | 0.57 | 0.44 | 60 | 1006.4 |
| 20260507161104 | 60 | 310 | 9.0 | 14.0 | 0.00 | 0.57 | 0.44 | 67 | 1006.5 |
| 20260507155124 | 60 | 0 | 5.0 | 12.0 | 0.00 | 0.57 | 0.44 | 69 | 1006.7 |
| 20260507154103 | 59 | 295 | 4.0 | 13.0 | 0.00 | 0.57 | 0.44 | 70 | 1006.7 |
| 20260507153102 | 59 | 345 | 5.0 | 12.0 | 0.00 | 0.57 | 0.44 | 72 | 1006.9 |
| 20260507152103 | 58 | 333 | 6.0 | 16.0 | 0.00 | 0.57 | 0.44 | 71 | 1006.9 |
| 20260507151102 | 58 | 331 | 9.0 | 16.0 | 0.00 | 0.57 | 0.44 | 70 | 1007.0 |
| 20260507145102 | 57 | 323 | 6.0 | 11.0 | 0.00 | 0.57 | 0.44 | 73 | 1007.2 |
| 20260507144103 | 57 | 355 | 8.0 | 13.0 | 0.00 | 0.57 | 0.44 | 76 | 1007.2 |
| 20260507143103 | 57 | 326 | 7.0 | 11.0 | 0.00 | 0.57 | 0.44 | 78 | 1007.2 |
| 20260507142124 | 57 | 0 | 5.0 | 12.0 | 0.00 | 0.57 | 0.44 | 80 | 1007.1 |
| 20260507141102 | 56 | 335 | 4.0 | 11.0 | 0.00 | 0.57 | 0.44 | 83 | 1007.4 |
| 20260507135103 | 54 | 311 | 4.0 | 12.0 | 0.00 | 0.57 | 0.44 | 87 | 1007.5 |
| 20260507134102 | 53 | 303 | 3.0 | 7.0 | 0.00 | 0.57 | 0.44 | 90 | 1007.4 |
| 20260507133103 | 52 | 336 | 5.0 | 10.0 | 0.00 | 0.57 | 0.44 | 90 | 1007.5 |
| 20260507132102 | 52 | 331 | 7.0 | 12.0 | 0.00 | 0.57 | 0.44 | 90 | 1007.7 |
| 20260507131124 | 52 | 339 | 5.0 | 11.0 | 0.00 | 0.57 | 0.44 | 93 | 1007.7 |
| 20260507125103 | 51 | 320 | 2.0 | 5.0 | 0.00 | 0.57 | 0.44 | 93 | 1007.5 |
| 20260507124103 | 51 | 278 | 1.0 | 5.0 | 0.00 | 0.57 | 0.44 | 93 | 1007.4 |
| 20260507123102 | 50 | 320 | 1.0 | 4.0 | 0.00 | 0.57 | 0.44 | 93 | 1007.6 |
| 20260507122102 | 50 | 316 | 1.0 | 3.0 | 0.00 | 0.57 | 0.44 | 93 | 1007.7 |
| 20260507121103 | 50 | 274 | 1.0 | 4.0 | 0.00 | 0.57 | 0.44 | 93 | 1008.0 |
| 20260507115102 | 49 | 346 | 1.0 | 3.0 | 0.03 | 0.57 | 0.44 | 93 | 1007.5 |
| 20260507114103 | 49 | 359 | 2.0 | 5.0 | 0.03 | 0.57 | 0.44 | 93 | 1007.4 |
| 20260507113103 | 49 | 9 | 3.0 | 6.0 | 0.03 | 0.57 | 0.44 | 93 | 1007.4 |
| 20260507112102 | 49 | 2 | 4.0 | 8.0 | 0.01 | 0.55 | 0.42 | 93 | 1007.5 |
| 20260507111104 | 49 | 312 | 2.0 | 10.0 | 0.01 | 0.55 | 0.42 | 93 | 1007.9 |
| 20260507105103 | 49 | 346 | 5.0 | 6.0 | 0.02 | 0.53 | 0.40 | 93 | 1007.3 |
| 20260507104103 | 49 | 345 | 3.0 | 8.0 | 0.02 | 0.53 | 0.40 | 93 | 1007.1 |
| 20260507103103 | 49 | 0 | 6.0 | 9.0 | 0.02 | 0.53 | 0.40 | 93 | 1006.6 |
| 20260507102103 | 49 | 357 | 6.0 | 13.0 | 0.01 | 0.52 | 0.39 | 92 | 1006.9 |
| 20260507101102 | 49 | 357 | 5.0 | 8.0 | 0.01 | 0.52 | 0.39 | 93 | 1007.1 |
| 20260507095102 | 49 | 354 | 4.0 | 6.0 | 0.03 | 0.50 | 0.37 | 93 | 1006.9 |
| 20260507094103 | 49 | 348 | 4.0 | 10.0 | 0.02 | 0.49 | 0.36 | 93 | 1006.8 |
| 20260507093103 | 50 | 339 | 5.0 | 8.0 | 0.02 | 0.49 | 0.36 | 93 | 1006.8 |
| 20260507092123 | 50 | 357 | 4.0 | 8.0 | 0.02 | 0.49 | 0.36 | 93 | 1006.5 |
| 20260507091103 | 50 | 1 | 4.0 | 9.0 | 0.01 | 0.48 | 0.35 | 93 | 1006.4 |
| 20260507085103 | 50 | 327 | 1.0 | 6.0 | 0.05 | 0.46 | 0.33 | 93 | 1006.6 |
| 20260507084102 | 50 | 351 | 5.0 | 11.0 | 0.05 | 0.46 | 0.33 | 93 | 1006.4 |
| 20260507083103 | 51 | 354 | 6.0 | 13.0 | 0.05 | 0.46 | 0.33 | 93 | 1006.0 |
| 20260507082103 | 51 | 329 | 8.0 | 13.0 | 0.03 | 0.44 | 0.31 | 93 | 1006.5 |
| 20260507081102 | 52 | 331 | 5.0 | 16.0 | 0.03 | 0.44 | 0.31 | 93 | 1006.4 |
| 20260507080103 | 53 | 321 | 5.0 | 20.0 | 0.01 | 0.42 | 0.29 | 94 | 1006.5 |
| 20260507075103 | 54 | 326 | 13.0 | 21.0 | 0.23 | 0.36 | 0.23 | 94 | 1006.3 |
| 20260507074103 | 55 | 291 | 1.0 | 8.0 | 0.15 | 0.28 | 0.15 | 95 | 1006.4 |
| 20260507073102 | 55 | 329 | 3.0 | 5.0 | 0.01 | 0.14 | 0.01 | 95 | 1005.5 |
| 20260507072144 | 55 | 332 | 2.0 | 4.0 | 0.00 | 0.13 | 0.00 | 95 | 1005.0 |
| 20260507071103 | 55 | 334 | 3.0 | 4.0 | 0.00 | 0.13 | 0.00 | 95 | 1005.0 |
| 20260507065103 | 55 | 237 | 0.0 | 4.0 | 0.00 | 0.13 | 0.00 | 95 | 1005.2 |
| 20260507064102 | 55 | 210 | 1.0 | 3.0 | 0.00 | 0.13 | 0.00 | 95 | 1005.2 |
| 20260507063104 | 55 | 235 | 1.0 | 3.0 | 0.00 | 0.13 | 0.00 | 95 | 1005.4 |
| 20260507062102 | 55 | 198 | 1.0 | 4.0 | 0.00 | 0.13 | 0.00 | 94 | 1005.3 |
| 20260507061103 | 55 | 186 | 2.0 | 5.0 | 0.00 | 0.13 | 0.00 | 94 | 1005.3 |
| 20260507055103 | 55 | 242 | 1.0 | 3.0 | 0.00 | 0.13 | 0.00 | 94 | 1005.7 |
| 20260507054124 | 55 | 212 | 2.0 | 7.0 | 0.00 | 0.13 | 0.00 | 94 | 1005.9 |
| 20260507053103 | 55 | 212 | 4.0 | 5.0 | 0.00 | 0.13 | 0.00 | 94 | 1006.0 |
| 20260507052102 | 55 | 222 | 1.0 | 8.0 | 0.00 | 0.13 | 0.00 | 94 | 1006.1 |
| 20260507051102 | 55 | 200 | 2.0 | 6.0 | 0.00 | 0.13 | 0.00 | 94 | 1006.1 |
| 20260507050103 | 55 | 211 | 4.0 | 7.0 | 0.00 | 0.13 | 0.00 | 94 | 1006.2 |
| 20260507045103 | 55 | 237 | 2.0 | 8.0 | 0.00 | 0.13 | 0.00 | 94 | 1006.2 |
| 20260507044102 | 55 | 243 | 3.0 | 7.0 | 0.00 | 0.13 | 0.00 | 94 | 1006.2 |
| 20260507043103 | 55 | 236 | 4.0 | 9.0 | 0.00 | 0.13 | 0.00 | 94 | 1006.3 |
| 20260507042102 | 55 | 212 | 5.0 | 9.0 | 0.00 | 0.13 | 0.00 | 94 | 1006.0 |
| 20260507041124 | 55 | 208 | 4.0 | 9.0 | 0.00 | 0.13 | 0.00 | 94 | 1006.0 |
| 20260507035102 | 55 | 229 | 3.0 | 10.0 | 0.00 | 0.13 | 0.13 | 94 | 1006.0 |
| 20260507034103 | 55 | 225 | 5.0 | 10.0 | 0.00 | 0.13 | 0.13 | 94 | 1006.2 |
| 20260507033103 | 55 | 226 | 6.0 | 12.0 | 0.00 | 0.13 | 0.13 | 94 | 1006.4 |
| 20260507032145 | 55 | 209 | 5.0 | 12.0 | 0.00 | 0.13 | 0.13 | 94 | 1006.6 |
| 20260507031103 | 55 | 221 | 6.0 | 12.0 | 0.00 | 0.13 | 0.13 | 94 | 1006.2 |
| 20260507025103 | 55 | 240 | 5.0 | 16.0 | 0.00 | 0.13 | 0.13 | 94 | 1006.3 |
| 20260507024102 | 55 | 238 | 6.0 | 13.0 | 0.00 | 0.13 | 0.13 | 94 | 1006.2 |
| 20260507023103 | 55 | 217 | 5.0 | 13.0 | 0.00 | 0.13 | 0.13 | 94 | 1006.3 |
| 20260507022102 | 55 | 209 | 6.0 | 10.0 | 0.00 | 0.13 | 0.13 | 94 | 1006.3 |
| 20260507021124 | 55 | 209 | 7.0 | 12.0 | 0.00 | 0.13 | 0.13 | 94 | 1006.3 |
| 20260507015102 | 55 | 214 | 4.0 | 13.0 | 0.00 | 0.13 | 0.13 | 94 | 1006.5 |
| 20260507014103 | 55 | 199 | 5.0 | 13.0 | 0.00 | 0.13 | 0.13 | 94 | 1006.7 |
| 20260507013103 | 55 | 206 | 7.0 | 12.0 | 0.00 | 0.13 | 0.13 | 94 | 1006.6 |
| 20260507012103 | 55 | 217 | 6.0 | 17.0 | 0.00 | 0.13 | 0.13 | 94 | 1006.8 |
| 20260507011103 | 55 | 207 | 9.0 | 17.0 | 0.00 | 0.13 | 0.13 | 94 | 1006.8 |
| 20260507005123 | 55 | 229 | 7.0 | 14.0 | 0.00 | 0.13 | 0.13 | 94 | 1006.9 |
| 20260507004125 | 55 | 223 | 6.0 | 20.0 | 0.00 | 0.13 | 0.13 | 94 | 1006.9 |
| 20260507003103 | 55 | 220 | 5.0 | 15.0 | 0.00 | 0.13 | 0.13 | 94 | 1006.8 |
| 20260507002102 | 55 | 229 | 9.0 | 15.0 | 0.00 | 0.13 | 0.13 | 94 | 1006.8 |
| 20260507001103 | 55 | 210 | 10.0 | 20.0 | 0.00 | 0.13 | 0.13 | 94 | 1006.8 |
| 20260507000123 | 55 | 211 | 9.0 | 21.0 | 0.00 | 0.13 | 0.13 | 94 | 1006.9 |
| 20260506235102 | 55 | 194 | 9.0 | 19.0 | 0.02 | 0.13 | 0.13 | 94 | 1006.7 |
| 20260506234103 | 55 | 210 | 7.0 | 24.0 | 0.02 | 0.13 | 0.13 | 93 | 1006.8 |
| 20260506233102 | 55 | 212 | 9.0 | 15.0 | 0.02 | 0.13 | 0.13 | 93 | 1006.8 |
| 20260506232103 | 55 | 207 | 10.0 | 17.0 | 0.00 | 0.11 | 0.11 | 93 | 1006.9 |
| 20260506231102 | 55 | 217 | 11.0 | 18.0 | 0.00 | 0.11 | 0.11 | 93 | 1006.8 |
| 20260506230124 | 55 | 217 | 11.0 | 25.0 | 0.00 | 0.11 | 0.11 | 93 | 1006.9 |
| 20260506225103 | 55 | 202 | 13.0 | 21.0 | 0.06 | 0.10 | 0.10 | 93 | 1006.7 |
| 20260506224102 | 55 | 208 | 13.0 | 24.0 | 0.05 | 0.09 | 0.09 | 92 | 1006.7 |
| 20260506222102 | 55 | 209 | 13.0 | 23.0 | 0.02 | 0.06 | 0.06 | 92 | 1006.8 |